Wind_Speed
15 14 13 14 15 16 17 16 14 14 14 14 13 14 14 14 16 16 14 11 11 12 13 14 13 13 13 14 15 16 17 17 16 17 17 17 18 19 19 18 19 19 20 20 20 20 20 20 20 21 21 20 19 18 18 18 18 18 19 19 20 20 20 20 19 19 19 18 17 17 17 16 16 16 15 15 15 15 15 15 16 16 17 17 18
15 13 13 15 15 15 16 15 14 14 15 15 14 13 12 12 13 13 12 11 12 13 13 13 13 13 13 14 14 15 15 15 15 16 16 16 17 18 18 18 18 19 20 20 21 20 20 21 21 21 21 20 20 19 19 19 19 20 20 21 22 22 22 22 22 21 21 21 20 20 19 18 18 17 17 17 17 17 17 16 16 16 16 17 17
14 13 13 15 15 15 15 15 15 15 15 14 13 12 11 11 12 12 12 12 13 12 12 12 13 14 14 15 15 14 14 14 14 15 15 15 15 17 17 17 17 18 18 19 20 20 21 21 21 21 21 21 20 20 20 20 21 21 22 22 23 23 23 23 23 23 23 23 22 22 21 20 19 19 18 18 18 18 18 18 17 17 16 16 17
15 14 14 14 15 15 15 15 15 16 15 14 12 11 11 11 11 12 12 13 12 12 12 12 12 14 15 15 14 13 12 13 13 13 13 13 14 15 15 15 16 16 17 17 18 19 19 20 20 20 20 20 20 20 20 20 21 22 22 22 22 22 22 23 23 23 23 22 22 22 21 21 21 20 20 20 20 19 19 19 19 18 18 17 17
15 14 14 14 14 15 14 14 16 16 15 14 11 11 12 12 12 12 13 12 12 12 11 11 13 15 16 15 13 12 11 12 13 13 13 12 13 13 13 14 15 15 16 16 17 18 18 18 19 19 19 19 19 18 19 19 19 20 20 20 20 20 20 20 21 21 21 20 20 21 21 22 22 22 22 21 21 21 20 20 20 19 19 19 18
15 14 13 14 13 14 14 14 16 16 15 13 12 12 13 12 13 13 12 12 12 12 11 12 14 15 15 14 12 11 11 12 12 12 12 12 12 11 12 12 14 15 15 15 15 16 17 17 17 17 18 17 16 16 16 16 17 18 18 18 17 17 17 17 18 18 18 19 19 20 20 21 22 23 23 23 22 22 21 21 21 21 20 20 20
12 12 13 14 14 16 17 16 15 14 14 13 13 14 14 13 13 12 12 12 12 12 11 12 13 14 14 13 11 11 11 11 11 11 12 12 10 10 11 12 13 13 14 14 14 14 15 15 15 15 15 14 14 14 15 15 16 16 17 16 16 15 15 15 15 16 16 17 17 18 19 20 20 21 22 22 23 22 22 22 22 22 22 22 21
13 11 11 11 13 16 16 14 13 13 13 14 14 14 13 13 12 12 12 13 13 12 11 12 12 13 14 12 11 10 11 12 11 11 12 11 10 10 11 11 12 12 11 11 12 12 13 13 14 14 14 13 13 13 14 13 13 14 14 14 13 12 12 12 12 13 14 14 15 16 17 18 19 19 20 20 21 21 22 22 23 23 23 23 23
14 13 10 10 11 12 11 11 12 13 14 14 13 13 13 12 12 13 13 13 12 12 11 11 11 11 12 11 10 10 10 12 11 10 11 10 10 10 11 11 11 12 11 10 10 11 12 13 13 13 13 12 12 12 12 11 11 11 11 11 11 11 11 11 12 13 13 14 15 16 17 17 18 18 18 18 18 19 19 21 22 23 23 24 24
13 13 12 12 13 12 11 11 13 14 13 12 12 13 13 13 13 13 13 12 11 11 10 11 11 10 11 11 10 10 9 10 10 9 10 9 9 10 10 10 11 11 11 11 11 11 12 12 11 11 11 11 11 11 10 10 10 10 10 11 11 12 12 13 13 14 15 16 16 17 18 18 18 18 18 17 17 17 17 18 19 20 21 22 23
13 13 12 13 14 14 14 14 15 14 13 13 13 13 13 13 13 12 11 11 10 10 9 9 10 11 11 11 10 10 10 11 11 11 11 9 9 9 9 9 10 10 11 10 11 11 11 11 10 10 10 10 10 10 10 11 11 11 11 12 12 13 14 15 15 15 16 16 16 17 17 18 18 18 18 16 16 15 16 16 17 18 19 20 21
13 12 12 15 16 16 17 17 16 15 15 14 14 14 13 13 12 11 10 10 10 9 8 9 10 10 10 11 11 11 11 12 12 11 11 9 9 9 8 8 8 9 10 10 10 10 10 10 9 9 9 9 10 10 11 12 13 13 13 13 14 14 15 15 16 16 16 16 16 16 17 17 17 18 17 16 15 14 14 15 16 16 17 18 19
13 13 15 18 17 17 17 17 17 16 16 15 14 14 13 12 12 10 10 10 11 10 9 9 9 10 10 10 10 10 9 9 10 10 10 9 8 8 7 7 8 8 9 9 9 9 9 9 9 9 10 11 11 12 13 14 15 15 15 14 14 14 15 16 17 17 17 16 16 16 16 16 17 17 17 15 14 14 13 13 14 15 15 16 17
14 16 18 18 17 18 18 18 17 16 15 14 13 13 12 12 12 10 10 11 11 11 11 10 9 9 10 11 10 10 10 8 8 9 9 9 8 8 7 7 8 8 8 8 8 9 10 10 11 11 12 13 13 13 14 15 15 15 15 14 14 14 15 16 16 16 16 15 15 15 15 15 16 16 16 16 15 14 13 13 13 14 14 15 15
15 16 17 17 17 17 17 16 15 14 14 13 13 13 12 12 12 11 11 11 11 11 11 11 10 9 9 10 9 9 10 9 9 9 10 10 9 8 8 8 9 9 9 9 10 10 11 12 12 13 14 14 14 14 15 15 15 15 15 14 14 14 15 15 15 15 15 14 14 14 14 14 15 15 16 16 16 15 14 13 13 14 14 14 14
15 15 15 15 15 15 15 15 14 13 13 13 13 13 12 12 12 12 11 11 11 11 11 11 11 10 9 9 9 9 10 9 9 10 10 11 10 9 10 10 11 11 11 11 11 12 13 13 13 14 15 15 15 15 15 15 14 14 14 14 14 14 14 14 14 13 13 13 13 13 13 14 14 14 15 15 15 15 15 15 14 15 15 15 15
16 15 15 15 15 15 15 15 13 13 13 13 13 13 13 13 13 12 12 12 12 12 13 12 11 11 10 10 10 10 10 9 9 10 10 11 10 11 11 12 12 12 12 12 13 14 14 14 14 14 15 15 14 14 14 14 14 14 13 13 14 14 13 13 14 13 13 13 13 13 13 13 14 14 14 15 15 16 16 16 16 16 16 16 16
17 16 16 16 16 16 16 14 13 13 13 13 13 13 14 13 13 13 13 12 13 13 13 13 13 13 12 12 11 10 9 9 10 11 10 10 10 11 11 12 12 12 12 13 14 14 14 14 14 14 14 14 14 15 15 14 14 14 13 13 13 13 13 13 13 14 14 14 14 14 14 14 14 14 14 15 15 16 16 16 17 17 17 17 17
18 17 17 17 16 16 15 14 14 13 14 14 14 14 14 15 15 15 14 12 13 12 12 13 13 13 13 14 12 12 11 10 11 12 11 10 10 10 11 12 12 12 13 13 13 14 14 14 14 14 14 14 15 15 15 15 14 14 13 13 13 12 12 13 13 14 14 14 15 15 14 14 14 14 14 15 15 15 16 16 17 17 18 18 18
18 18 18 17 17 16 16 15 15 15 15 15 15 15 15 16 16 16 16 14 13 13 13 13 12 12 14 14 13 13 13 11 11 12 12 11 10 10 11 11 12 12 12 12 13 13 13 14 14 14 14 15 15 15 15 15 14 14 14 13 13 13 13 13 13 13 14 14 15 15 15 15 15 14 14 14 14 15 15 15 16 16 17 17 17
18 18 19 19 18 18 17 17 17 16 16 16 16 16 16 16 16 16 16 16 16 15 14 13 13 13 14 14 13 12 13 13 12 13 12 11 10 10 11 11 12 12 12 12 12 13 14 14 15 15 15 15 15 15 15 15 14 14 14 14 14 14 14 14 14 14 14 15 16 16 16 16 16 15 15 14 14 14 14 14 14 15 15 15 15
18 19 19 19 19 18 18 18 17 17 16 16 16 15 15 16 16 16 16 16 16 16 15 14 14 14 13 13 13 13 13 12 12 12 12 12 11 11 11 12 12 12 12 12 13 13 14 15 15 15 15 15 15 15 15 14 14 14 14 15 15 15 15 15 15 15 16 16 17 17 17 17 16 16 15 15 14 13 13 13 13 13 13 13 13
17 18 18 17 17 17 17 17 17 17 17 16 16 16 15 15 16 15 15 15 15 15 14 14 13 13 13 14 14 14 13 13 12 12 12 12 12 12 12 12 12 13 13 13 14 14 14 15 15 15 15 15 15 15 14 14 15 15 15 15 16 16 16 16 16 17 17 17 17 18 18 18 17 17 16 16 15 14 13 13 13 13 12 12 12
16 16 16 16 16 17 17 17 17 17 16 16 16 15 15 15 15 14 14 14 14 14 14 14 13 13 13 14 14 14 14 13 12 12 13 12 12 13 12 13 13 13 14 14 14 15 15 15 15 15 15 15 14 14 14 15 15 15 16 16 17 17 17 17 17 17 17 18 18 18 19 19 18 18 18 17 16 15 14 14 13 13 12 12 12
18 18 17 17 17 17 17 17 17 16 15 15 15 15 15 15 14 13 13 13 14 14 14 14 14 15 15 14 14 15 14 13 13 13 13 12 13 14 13 14 14 14 14 14 14 15 15 15 15 15 14 14 14 14 15 15 15 16 16 17 17 18 17 17 17 18 18 18 18 19 19 19 19 19 18 18 17 16 15 14 13 13 12 12 12
20 20 19 18 17 17 17 17 16 15 15 15 14 14 14 14 14 13 12 13 14 14 15 15 15 15 15 14 13 14 14 13 14 14 14 14 14 15 14 15 15 14 14 14 14 14 14 15 14 14 14 14 14 14 15 15 16 16 17 17 17 18 18 18 18 18 18 18 19 20 20 20 20 19 19 18 17 17 16 15 14 13 13 13 13
20 20 19 18 17 17 17 17 16 15 15 14 13 13 13 13 13 13 12 13 14 14 15 15 14 14 14 13 12 12 13 13 13 14 15 15 14 15 15 15 15 14 14 14 14 14 14 14 14 14 14 14 15 15 15 16 16 16 17 17 18 18 18 18 19 19 19 19 20 20 21 21 20 20 19 18 18 17 16 16 15 14 14 14 14
17 17 17 17 16 16 16 16 15 15 15 14 13 12 12 12 12 11 11 12 13 14 14 14 14 13 12 12 12 11 11 12 12 14 15 14 14 15 15 15 14 14 14 14 14 14 14 14 14 15 15 15 16 16 16 16 16 17 17 18 18 18 19 19 19 19 19 20 20 20 20 20 20 20 19 18 18 17 17 16 16 15 15 15 15
15 16 16 16 16 15 15 15 15 15 15 15 14 13 12 12 12 12 11 11 12 13 14 14 13 12 11 12 12 12 12 13 13 14 15 15 15 15 15 14 14 14 14 14 14 14 15 15 15 15 16 16 16 16 16 16 17 17 18 18 19 19 19 19 19 19 19 19 19 19 19 18 18 18 18 18 18 17 17 17 16 16 16 15 16
13 14 15 15 15 14 14 14 14 15 15 15 15 15 14 13 13 13 12 12 12 13 14 14 14 13 14 15 15 16 16 16 16 15 16 16 17 16 15 14 14 14 14 14 14 15 15 15 16 16 16 16 17 17 17 17 17 18 18 19 19 19 19 19 18 18 18 18 18 18 17 17 17 17 18 18 18 18 18 17 17 17 16 16 16
12 13 14 14 14 14 14 13 13 14 14 15 15 15 15 15 15 15 15 14 14 15 15 15 16 16 16 17 17 18 18 18 18 17 16 17 18 17 16 16 15 15 15 15 15 15 16 16 16 16 17 17 17 17 18 18 18 18 19 19 19 19 19 18 17 16 16 17 17 17 17 17 17 17 17 17 18 18 18 18 18 18 18 18 18
13 13 13 13 14 13 12 11 10 10 11 12 14 15 15 16 16 15 15 14 14 14 14 14 14 14 15 15 16 16 17 17 17 17 17 18 18 17 17 17 16 16 16 16 16 16 16 16 17 17 17 18 18 19 19 19 19 19 19 19 19 18 17 17 16 15 15 16 17 17 18 18 18 17 17 17 18 18 18 19 19 19 20 20 21
12 11 12 13 14 13 12 10 9 8 8 10 12 13 14 15 14 14 13 12 11 11 11 11 11 11 12 13 14 14 15 15 15 15 16 17 17 16 16 16 16 16 16 16 16 16 16 16 17 17 18 19 19 20 20 20 19 19 18 18 18 17 16 16 15 15 16 17 17 18 19 19 19 19 19 19 19 19 20 20 21 21 22 23 23
11 11 12 13 14 14 13 12 11 10 10 11 12 13 13 14 13 13 12 11 10 10 10 10 10 11 12 13 13 13 13 13 14 14 14 14 14 14 14 14 15 15 15 15 16 16 16 16 17 18 18 19 19 19 20 20 19 19 18 17 17 17 16 16 16 17 17 18 18 19 20 20 21 21 21 21 21 21 22 22 23 24 24 25 26
12 12 12 13 14 14 14 15 15 14 14 14 14 14 14 14 14 14 13 12 11 11 11 11 11 12 13 13 13 13 13 12 13 13 13 13 13 13 13 14 14 15 15 16 16 16 16 17 17 18 18 18 19 19 19 19 18 18 17 17 17 17 17 17 17 17 18 19 19 20 21 21 22 22 22 22 23 23 23 23 24 25 26 27 28
14 13 14 14 14 14 15 15 15 15 15 16 16 16 16 16 16 15 15 14 13 12 12 12 13 14 14 14 14 14 13 13 13 14 14 14 14 14 14 14 15 15 15 16 16 17 17 18 18 19 19 19 19 19 19 18 18 18 18 18 18 18 18 18 18 18 19 20 20 20 21 22 22 23 23 23 24 24 25 25 26 27 27 28 28
17 16 16 16 16 15 15 14 15 15 16 17 18 18 18 18 18 17 17 16 14 13 14 14 15 15 15 15 15 15 15 14 15 15 15 14 14 15 15 16 16 16 16 17 18 18 19 20 20 20 20 20 20 19 19 19 19 20 20 20 21 21 21 21 20 20 20 21 21 21 21 22 23 23 23 24 24 25 26 27 28 29 29 29 29
18 18 17 17 17 16 15 15 15 15 16 17 18 19 19 19 19 18 18 17 15 15 15 16 16 16 17 17 17 17 16 16 16 15 15 15 15 16 17 17 17 17 18 19 20 20 21 21 22 22 21 21 21 21 21 21 22 22 23 23 23 23 23 23 22 22 22 22 22 23 24 24 25 24 24 24 25 26 27 28 29 30 30 31 31
18 18 17 17 17 17 16 16 15 16 17 17 18 18 19 19 19 19 18 17 16 16 16 17 17 18 18 19 19 19 18 17 17 16 16 16 17 17 18 18 18 19 20 20 21 22 22 23 23 22 22 22 22 23 23 23 23 23 23 24 24 24 24 24 23 23 23 23 24 25 26 27 26 25 24 24 25 27 28 29 30 31 31 32 32
19 19 18 18 18 17 16 16 16 16 17 18 18 19 19 19 19 19 18 17 17 17 18 18 19 19 20 20 20 20 19 19 18 18 18 19 19 19 20 20 21 21 21 22 23 23 23 23 23 23 23 23 24 24 24 23 23 23 22 23 24 25 25 25 24 24 25 25 26 27 27 28 27 26 26 25 26 29 30 32 33 33 33 34 34
20 20 19 19 18 17 17 16 16 17 18 18 19 19 20 20 20 20 19 19 19 19 19 19 20 20 21 21 21 21 21 21 20 20 21 21 21 21 22 22 23 23 23 24 24 24 24 24 24 24 24 24 25 25 24 23 23 23 24 24 25 25 25 25 26 26 27 29 29 29 29 30 30 30 30 30 32 34 35 34 35 36 36 37 37
22 21 20 19 19 18 17 17 17 18 18 19 20 20 20 20 20 20 20 20 20 20 20 20 21 21 22 22 23 23 23 23 23 23 23 23 23 24 24 24 25 25 25 26 26 26 26 26 26 26 26 26 26 26 26 25 25 25 26 26 27 26 26 27 28 29 30 32 33 32 30 31 31 31 32 34 36 38 37 35 36 37 38 39 40
23 22 21 20 19 18 17 17 17 18 19 20 21 21 21 21 21 21 21 21 21 21 22 22 22 23 24 24 25 25 25 25 25 25 25 26 26 26 26 26 27 27 28 28 28 28 28 28 28 28 28 28 28 28 28 28 27 27 27 28 28 29 29 30 31 32 33 34 36 36 33 32 33 33 34 36 38 39 38 37 37 38 38 40 41
23 22 21 19 18 17 17 17 17 18 19 21 22 23 23 23 23 23 23 23 23 24 24 24 25 25 26 27 27 27 27 27 27 27 28 28 28 28 29 29 29 29 30 30 30 30 30 30 31 30 30 31 31 31 30 30 30 29 29 29 30 30 32 33 34 35 36 36 38 39 37 35 35 38 39 39 38 39 39 39 40 41 40 40 41
23 22 20 18 17 16 16 17 17 17 18 20 22 24 25 25 26 26 26 26 26 26 26 26 27 27 27 28 28 28 28 29 29 30 30 31 31 31 31 31 32 32 33 33 33 34 34 34 34 34 34 34 35 34 34 34 34 34 35 36 36 36 36 37 39 41 42 42 42 43 44 41 39 42 44 43 40 41 40 41 43 44 43 43 43
23 22 19 17 17 16 16 17 17 18 19 20 22 24 25 27 28 28 28 28 28 28 28 27 28 28 28 29 29 30 30 31 31 32 33 33 34 34 34 34 35 35 36 36 36 37 37 38 38 38 38 38 38 39 39 40 40 40 41 42 42 42 42 42 44 45 46 46 47 48 49 49 46 46 49 47 44 44 44 44 47 47 46 46 47
23 22 19 18 18 18 18 18 18 19 19 20 22 24 26 27 29 29 29 29 29 29 29 29 29 29 30 31 31 32 32 33 34 35 36 36 37 37 37 37 38 38 39 39 39 39 40 40 41 41 41 42 42 43 43 44 44 44 44 45 46 46 46 46 46 47 47 47 48 49 51 53 52 51 53 54 51 50 51 50 51 51 50 50 50
24 23 22 21 20 20 20 20 21 21 21 21 22 24 25 27 29 30 31 31 31 31 30 30 30 31 32 32 33 34 35 36 36 37 38 39 40 40 40 40 41 41 42 42 42 43 43 43 44 44 45 45 46 46 47 47 47 47 47 47 48 48 49 49 49 50 50 48 50 51 53 55 55 54 57 59 57 56 57 55 53 54 54 52 52
24 23 24 23 22 22 22 22 23 23 23 23 24 25 26 28 29 31 32 32 33 32 32 32 32 33 33 34 35 36 37 38 38 40 41 42 43 43 43 44 44 44 45 45 45 46 47 47 48 48 49 49 50 50 50 50 51 51 51 51 51 51 52 52 52 53 53 52 52 54 55 56 57 56 57 60 59 58 59 58 55 55 56 55 55
24 24 24 24 23 24 24 24 25 26 26 26 26 27 28 29 30 32 34 34 34 34 34 34 35 35 36 37 38 38 39 40 40 42 43 44 45 46 47 47 48 47 47 48 48 48 49 50 51 51 51 52 53 53 54 54 54 55 55 55 55 55 55 55 55 57 57 56 54 56 57 58 59 58 57 59 59 57 57 58 57 57 57 58 58
24 25 26 26 26 26 25 26 27 28 28 28 28 30 30 31 32 34 35 36 36 36 36 37 37 38 38 39 40 41 42 42 43 43 45 46 48 49 50 51 51 51 51 52 53 52 52 53 53 54 54 55 55 56 56 57 57 58 58 57 57 59 58 58 58 58 59 59 57 55 57 59 58 58 58 58 59 58 57 57 58 59 59 59 59
Wind_Direction
261 262 262 264 266 266 268 266 262 263 265 264 265 265 259 250 251 256 256 249 249 256 257 259 261 262 264 265 266 266 266 264 262 260 259 259 259 259 259 259 261 262 263 264 264 265 265 265 265 266 267 270 273 277 280 282 283 285 286 286 287 287 288 289 290 291 291 290 290 289 289 288 286 285 283 282 279 278 276 274 274 273 272 271 270
259 262 263 266 269 270 270 266 259 259 265 266 262 260 252 245 244 244 244 248 252 253 255 260 263 264 265 264 262 262 263 263 261 261 261 260 260 261 260 260 260 261 263 265 267 268 269 269 269 270 270 272 275 278 280 282 282 282 281 282 282 284 285 286 288 289 290 291 292 292 291 291 289 287 286 284 281 279 278 277 276 275 274 273 272
253 259 265 268 268 270 270 265 260 259 263 264 257 249 240 235 232 234 243 249 251 254 259 262 263 264 263 260 258 258 260 261 260 259 260 260 260 260 260 260 260 261 262 264 267 268 270 272 273 274 275 276 277 278 280 280 280 280 280 280 281 282 283 284 285 286 287 289 291 292 293 292 291 290 288 286 283 281 280 279 278 276 275 274 273
250 256 266 268 267 269 267 261 258 261 263 259 248 237 231 228 229 237 245 248 252 258 261 262 262 260 257 255 255 256 259 261 260 258 258 258 258 259 260 260 261 261 262 264 266 268 270 272 273 275 276 277 277 278 280 280 281 280 280 280 281 282 283 283 284 284 286 288 290 292 293 293 292 291 290 288 286 283 281 280 278 277 275 273 273
252 258 263 261 262 268 270 263 258 259 257 251 240 230 229 228 232 240 244 248 254 258 259 257 254 253 252 253 255 256 258 261 259 257 255 255 256 259 261 262 262 261 262 264 266 269 271 272 274 275 276 277 278 280 282 283 284 283 283 282 283 283 284 284 285 285 287 288 290 292 293 293 292 291 289 288 286 284 282 281 279 278 277 275 273
257 260 259 254 257 262 266 267 261 254 247 242 235 227 230 233 238 242 245 251 255 256 255 251 250 249 250 254 255 254 256 258 255 254 254 254 255 258 261 262 262 263 264 266 268 271 273 274 276 276 277 279 281 283 285 286 287 286 286 285 285 285 286 287 289 290 291 292 293 295 295 295 295 293 290 287 284 283 281 280 279 279 278 277 276
256 258 256 250 246 246 252 259 256 243 234 234 232 229 234 238 241 245 249 254 254 254 252 251 251 249 251 255 252 249 250 250 249 252 255 254 256 258 258 258 260 264 266 269 271 273 275 277 279 278 279 281 283 285 286 288 288 288 288 287 288 289 290 292 293 294 295 296 298 300 301 301 301 299 295 289 283 280 279 279 279 278 278 277 277
251 251 250 244 241 240 242 247 245 234 228 232 233 234 239 240 242 246 249 252 253 251 251 253 253 250 250 249 245 244 244 245 246 254 260 259 259 258 259 260 263 267 270 272 273 274 277 281 282 281 281 284 286 287 289 291 291 291 291 291 293 296 298 298 298 299 299 301 302 303 304 306 307 305 301 295 288 282 279 278 278 278 277 276 276
241 238 239 240 244 238 231 236 239 233 230 233 235 237 239 239 242 246 248 252 253 252 251 255 259 256 250 241 237 238 240 245 245 254 263 261 260 259 262 266 269 272 273 272 272 276 281 283 283 281 282 285 288 289 290 292 292 292 293 295 299 304 306 305 303 303 303 304 305 305 306 308 311 311 307 301 296 290 285 282 280 280 279 277 275
235 236 238 238 238 232 228 234 234 232 231 232 235 238 239 238 241 245 249 252 253 253 254 260 265 259 249 240 235 235 237 244 250 258 262 260 262 262 263 267 271 273 273 271 272 279 282 282 282 281 284 287 288 289 290 291 291 291 294 297 301 305 306 306 306 305 306 306 305 305 306 309 314 316 313 306 300 297 293 289 286 284 283 281 279
243 240 233 234 235 233 233 234 232 233 234 234 236 239 238 238 240 243 248 250 252 256 255 257 263 260 250 243 241 242 243 250 258 263 262 263 265 262 263 267 272 275 276 275 275 276 277 280 283 283 286 289 290 292 294 295 296 297 299 300 303 304 305 306 306 305 305 305 305 305 307 311 316 317 316 311 306 301 296 293 292 290 289 287 285
246 233 229 240 243 238 235 234 235 237 238 238 238 237 236 236 239 240 242 242 245 255 253 249 257 259 251 243 244 245 248 254 257 259 260 262 264 263 264 270 275 277 277 277 276 275 276 281 285 286 288 290 291 294 295 298 300 301 302 302 304 305 306 306 305 304 303 305 307 308 310 313 316 317 316 315 313 308 302 298 297 297 295 292 289
237 233 243 252 248 242 239 237 237 237 238 237 236 236 236 237 238 235 237 237 236 244 251 252 255 257 251 240 238 243 248 252 251 251 256 259 262 266 271 276 279 278 278 280 281 283 284 285 288 289 291 292 294 295 296 299 301 302 302 302 303 304 306 306 305 304 304 306 308 309 311 312 314 315 316 316 316 315 311 306 303 303 302 298 296
243 245 250 251 247 244 242 240 237 234 233 234 234 236 236 236 238 236 238 240 237 241 248 250 249 252 252 240 235 242 244 245 250 251 254 258 264 271 279 283 281 279 280 284 286 288 289 290 291 292 293 295 297 297 296 298 299 301 302 301 301 303 306 306 305 306 307 310 311 310 310 310 310 312 313 315 316 318 316 313 311 310 309 305 302
252 249 247 246 244 241 238 234 230 227 229 232 232 233 234 235 239 240 240 241 243 246 246 246 245 248 250 239 231 236 240 245 255 257 257 261 267 272 278 279 279 281 283 286 290 292 292 292 293 295 296 296 295 295 295 297 299 301 302 301 301 304 307 307 308 311 312 314 314 313 311 310 309 308 309 311 313 314 314 314 314 314 313 310 306
256 251 248 245 240 235 231 227 222 221 224 228 230 230 232 236 239 242 244 244 244 246 248 249 247 246 245 239 238 246 252 256 259 261 261 263 267 270 271 272 275 281 285 290 293 292 291 291 293 296 295 294 292 293 296 299 303 304 303 302 302 305 307 308 311 314 315 315 316 316 314 312 310 308 307 307 308 308 308 308 308 309 309 308 307
258 255 251 244 237 232 230 225 222 223 224 227 230 232 234 238 241 242 243 244 243 244 249 250 246 244 240 241 250 256 258 264 266 265 262 264 269 271 270 270 273 279 284 288 289 288 289 290 292 294 293 293 293 296 301 304 307 308 306 304 304 305 307 310 313 315 316 318 319 318 316 313 311 309 307 305 304 303 303 302 302 301 302 302 302
259 257 253 248 240 233 230 227 226 228 230 231 232 235 238 240 241 242 241 244 248 245 244 245 246 245 242 245 254 257 257 265 270 268 265 265 270 272 271 269 270 274 279 283 284 286 288 290 291 292 293 294 296 300 304 307 309 308 307 304 304 305 308 311 313 316 318 320 320 319 318 315 313 311 308 305 303 301 300 299 299 298 298 298 297
259 258 254 251 243 236 233 232 232 234 236 238 239 241 243 243 244 244 241 242 247 243 236 238 243 243 244 247 251 256 263 267 268 268 266 266 269 271 270 267 268 272 277 281 284 287 289 291 291 290 291 294 297 302 305 307 307 307 305 304 304 306 308 311 314 317 319 320 321 320 318 316 314 312 309 307 305 303 302 300 299 298 297 296 294
259 257 252 250 245 240 239 240 242 244 245 245 245 245 245 245 245 245 243 237 237 240 238 238 242 246 250 251 251 257 265 267 266 267 266 266 269 270 266 265 268 272 278 282 285 288 290 290 290 290 292 296 300 303 304 305 306 305 304 304 306 307 309 312 315 318 321 322 322 320 318 316 314 313 311 309 307 306 305 303 301 299 297 296 295
258 255 251 249 247 245 246 248 250 252 251 249 247 246 246 245 244 244 243 237 234 238 240 237 240 248 253 254 253 255 260 260 259 261 264 266 266 264 263 264 268 273 279 283 285 287 288 288 290 292 296 300 301 302 303 303 303 304 305 307 308 309 311 314 318 322 326 326 325 322 319 317 315 313 312 311 310 309 308 305 303 302 301 300 299
254 251 249 248 248 250 251 253 254 254 253 250 248 247 247 247 245 243 242 240 239 240 239 239 240 245 251 253 253 254 258 260 258 258 260 263 262 260 262 266 270 275 279 281 282 283 285 287 290 294 298 299 299 300 300 301 303 305 308 310 312 313 315 318 323 328 330 330 328 325 321 318 316 314 313 312 311 309 309 307 306 305 305 305 305
247 245 246 248 250 253 256 257 256 255 252 249 247 245 244 244 243 242 241 241 243 243 241 241 241 243 247 253 254 252 255 262 266 267 266 264 263 261 262 267 273 277 279 280 280 282 286 290 292 295 295 296 296 298 300 302 305 308 310 312 314 316 318 322 327 330 331 331 328 326 322 320 318 316 314 312 311 310 309 308 307 307 307 307 307
240 242 249 255 259 261 261 259 256 253 249 245 242 239 238 238 239 240 241 240 241 242 241 239 238 236 238 249 255 251 254 260 262 267 272 269 266 264 265 269 272 275 278 279 281 284 288 290 291 292 292 293 296 299 302 304 306 309 311 313 315 317 320 324 327 328 329 329 327 325 322 320 318 316 315 313 311 310 309 308 308 307 306 306 304
242 248 256 261 262 261 259 256 252 247 243 240 237 234 232 233 234 236 239 240 239 238 238 237 237 236 236 243 250 251 255 257 255 264 273 272 268 267 267 270 272 274 277 279 282 285 288 289 288 289 291 294 298 300 302 305 307 309 311 314 315 317 320 323 325 326 326 326 324 322 320 318 316 314 313 311 309 308 306 305 304 302 301 300 297
247 253 258 259 256 255 253 250 247 242 240 238 235 232 230 230 230 231 234 237 238 239 238 237 240 243 243 242 244 249 253 252 253 262 268 266 267 270 270 271 273 275 277 280 283 286 286 286 286 287 290 294 298 300 303 305 308 310 311 313 315 317 319 321 322 322 322 322 320 319 316 314 313 311 309 307 305 303 301 299 296 294 292 289 287
249 254 256 254 250 249 248 246 244 241 239 238 236 232 228 228 227 226 229 233 236 238 239 240 243 247 250 248 247 252 257 256 257 261 263 263 267 270 271 272 274 277 279 281 283 284 284 284 285 287 290 294 298 301 304 306 308 309 310 311 313 315 317 318 319 319 318 317 316 315 313 311 310 308 306 303 301 300 297 295 291 288 285 281 278
248 249 248 247 246 245 244 244 243 242 241 239 238 235 229 226 224 221 222 225 229 236 239 242 244 245 249 253 252 255 260 262 264 267 268 269 271 272 273 276 278 280 281 282 283 284 284 285 286 289 292 296 300 302 305 307 309 309 309 310 311 313 314 315 316 316 315 314 313 312 310 308 306 305 302 300 298 296 294 291 289 285 281 277 274
244 241 240 241 242 241 241 242 242 242 242 240 240 238 233 226 222 222 224 222 225 234 240 243 246 247 248 251 253 259 267 270 271 273 275 274 274 275 277 280 281 281 283 284 285 286 287 288 290 293 297 300 302 305 307 308 308 307 307 308 309 310 311 313 313 313 312 311 310 308 306 305 304 302 300 298 296 294 292 289 286 283 280 277 274
232 230 233 238 241 242 241 242 242 240 240 239 239 238 237 234 230 233 239 236 235 243 249 254 258 258 257 255 255 260 265 269 270 272 275 275 275 276 279 281 281 284 287 288 289 291 292 294 297 299 302 303 304 305 305 305 304 303 304 304 305 307 308 309 310 310 309 309 308 308 307 306 305 303 301 300 298 296 293 290 287 283 279 276 275
226 224 228 235 240 241 241 239 238 237 236 237 238 238 238 239 240 242 246 247 247 251 256 260 262 263 263 262 262 263 265 267 268 269 271 272 274 277 279 281 284 286 289 290 292 294 295 297 299 300 301 301 300 300 300 299 299 299 300 301 303 304 306 308 309 309 308 308 309 309 308 307 306 305 304 302 300 298 295 293 289 284 279 276 274
225 225 227 230 229 230 230 228 226 228 231 233 236 237 238 239 241 242 245 247 248 250 253 256 258 260 262 263 265 267 268 269 270 270 272 274 277 280 282 285 287 288 289 290 292 294 294 296 296 296 296 296 295 295 295 295 295 297 298 299 301 303 305 306 307 307 307 307 307 307 307 306 306 305 304 302 300 298 295 293 290 287 282 278 276
220 217 217 216 213 213 218 223 226 229 233 235 235 235 235 236 237 238 239 241 240 243 247 249 252 257 261 264 267 269 271 272 273 274 275 277 280 282 284 285 286 286 287 289 290 291 291 292 291 291 291 291 292 292 292 292 293 294 296 297 300 302 304 305 305 305 304 304 304 304 304 305 305 304 303 301 298 296 294 292 290 288 285 282 279
218 211 210 210 209 211 217 225 234 241 244 243 238 234 233 233 234 233 231 232 233 236 240 245 251 257 261 264 267 268 270 271 273 275 277 280 283 285 287 287 288 289 290 291 291 291 290 289 288 289 289 289 290 290 291 292 293 295 297 300 301 303 303 303 303 303 302 301 301 301 302 302 301 300 299 298 296 294 293 291 290 288 286 284 281
227 222 218 218 218 221 225 230 235 239 240 240 237 235 234 233 232 230 229 230 233 237 243 250 257 262 263 263 265 267 268 269 272 276 280 283 286 287 288 289 289 290 291 291 291 290 289 289 288 289 289 289 290 291 292 294 296 298 300 302 302 302 302 301 299 298 297 296 295 295 296 296 297 297 297 296 296 295 294 293 292 291 289 287 285
235 233 231 230 232 234 235 236 236 235 233 231 232 233 234 234 234 234 235 235 236 240 249 256 259 260 260 260 261 262 263 265 268 272 275 278 280 281 281 282 284 285 286 286 286 286 286 287 288 288 288 289 289 290 290 292 293 295 296 296 296 296 295 293 291 290 288 288 288 290 292 294 296 298 298 298 298 296 296 295 294 293 292 291 289
239 238 238 238 240 241 240 239 236 234 231 227 227 230 232 234 236 237 238 237 239 246 253 257 257 257 257 257 257 258 259 261 264 266 267 268 270 271 272 273 275 277 278 279 280 281 282 282 283 283 283 284 284 284 284 284 286 287 287 287 287 287 287 286 286 284 284 285 288 291 294 296 297 299 299 300 299 298 298 297 295 295 293 292 291
238 237 238 240 242 243 242 240 237 234 232 228 227 229 232 235 237 238 238 238 243 251 256 257 257 256 257 256 256 257 256 258 261 263 263 263 263 264 266 267 269 270 272 274 275 276 277 277 277 277 276 276 276 276 277 278 280 282 282 282 281 281 281 281 282 283 283 286 290 294 295 295 295 296 297 298 299 299 299 299 298 297 296 295 293
238 238 237 238 240 241 242 242 239 234 232 229 229 231 233 236 238 238 239 241 247 253 256 257 257 257 257 256 255 255 255 256 258 259 260 260 260 261 262 264 266 267 269 271 272 272 272 272 272 272 272 271 271 271 273 275 277 279 280 280 280 279 278 278 279 280 282 285 290 293 294 293 293 292 294 297 300 302 302 302 301 300 299 298 297
238 241 241 238 237 239 241 242 240 235 231 229 229 231 233 235 237 238 241 245 250 254 256 256 257 257 256 257 256 256 257 257 258 259 259 259 260 261 262 263 265 266 267 268 268 268 268 269 269 269 269 268 269 270 272 274 275 276 277 278 278 277 277 276 276 276 279 283 288 291 292 291 289 288 290 296 301 305 306 304 302 301 300 299 298
237 240 241 240 237 236 239 241 241 236 230 229 229 230 232 234 236 238 242 246 251 254 255 257 258 259 259 259 259 258 258 259 260 261 261 261 262 263 265 266 267 267 267 267 267 267 267 267 268 268 268 269 270 271 272 272 272 274 276 277 277 277 276 275 274 274 278 282 285 289 292 292 288 285 286 290 296 301 304 303 301 300 300 298 298
233 234 236 238 237 236 238 241 242 239 234 231 231 232 234 236 239 241 245 248 250 252 254 256 258 259 259 259 258 257 257 257 259 260 262 263 264 265 266 267 268 267 267 266 266 267 268 268 269 269 269 270 270 270 271 270 270 271 274 275 277 276 275 274 274 276 280 283 286 288 290 292 289 286 286 287 291 295 298 299 299 300 299 298 296
231 231 234 239 241 240 241 243 245 244 241 238 237 238 239 241 243 245 248 249 250 251 252 254 255 256 256 256 255 255 256 257 259 261 263 265 266 268 268 269 269 269 268 267 266 267 268 269 269 269 269 269 269 270 270 270 270 271 274 276 276 276 275 275 276 278 281 284 286 287 288 288 288 287 287 286 288 290 292 295 297 298 299 299 296
232 231 234 240 244 246 247 248 247 246 245 243 243 243 244 245 246 247 249 251 252 253 254 255 256 257 256 256 256 256 258 260 262 263 266 267 269 269 269 269 269 268 267 266 266 266 267 268 268 268 268 269 270 270 270 271 271 272 275 276 277 278 278 277 278 280 281 283 285 286 286 285 285 287 286 285 286 288 288 291 294 295 296 297 296
230 229 232 239 247 250 252 253 252 252 250 249 248 246 246 247 248 250 251 252 253 254 254 256 257 258 258 257 257 257 259 261 264 266 268 269 269 270 269 269 269 268 267 265 265 265 265 266 266 267 267 268 270 271 271 272 273 274 276 278 279 280 280 279 280 281 282 283 284 284 284 283 283 285 285 284 286 287 287 289 293 294 295 294 293
226 226 231 241 248 252 255 258 259 260 258 256 254 251 250 250 250 252 253 254 255 254 255 256 257 258 258 258 258 258 259 261 264 265 267 269 270 270 270 270 270 269 268 267 267 266 266 267 267 269 269 270 271 273 274 274 276 277 279 280 282 282 282 281 281 282 283 283 283 282 282 282 281 283 284 285 286 286 285 288 291 293 294 293 293
225 225 232 241 246 249 254 257 259 261 261 260 258 257 255 254 254 254 254 255 255 255 255 256 256 257 257 257 258 259 260 263 266 267 268 269 270 270 270 270 270 269 268 268 267 267 268 268 270 271 272 273 273 274 275 276 277 278 279 280 281 281 282 282 282 283 284 283 283 282 282 282 283 283 283 285 286 285 284 287 290 292 293 293 293
229 232 238 243 246 249 252 253 255 257 259 260 261 261 260 258 257 256 255 254 254 255 256 256 257 257 258 259 260 262 264 268 269 269 270 272 272 272 272 272 271 270 269 268 267 267 267 268 269 270 271 272 273 274 275 276 277 278 278 279 279 280 281 282 283 284 284 283 282 281 281 282 284 284 283 284 285 285 285 286 288 291 292 293 293
237 240 244 245 248 252 254 254 256 257 258 260 261 263 263 262 260 258 256 254 254 254 255 257 258 259 261 262 264 266 268 271 271 271 272 273 274 274 274 273 272 271 269 268 267 267 268 268 269 271 272 273 274 275 276 277 278 279 279 279 280 280 281 283 283 284 284 283 282 281 281 281 282 283 282 283 284 284 285 286 287 289 291 292 293
243 245 247 248 250 253 255 256 255 256 256 257 259 261 262 263 261 259 256 255 254 254 255 257 259 261 263 265 267 269 270 272 272 272 273 275 275 276 276 275 275 273 271 269 268 267 268 269 270 272 273 275 276 277 278 279 280 281 281 282 282 282 283 283 283 283 284 284 283 281 281 281 282 282 282 283 283 283 285 287 288 289 290 292 293
245 245 245 246 249 254 257 257 255 254 255 255 257 259 261 262 261 260 258 257 256 256 257 260 263 265 267 268 269 270 271 271 272 273 275 276 277 277 277 277 277 276 275 274 273 273 273 274 275 276 276 277 278 279 280 281 281 282 283 283 283 283 284 283 283 283 284 285 285 283 281 281 282 282 282 283 284 284 285 288 289 290 290 291 292
Height
5822 5822 5822 5822 5822 5823 5823 5825 5826 5826 5826 5827 5827 5827 5827 5827 5827 5827 5828 5828 5829 5828 5828 5828 5828 5828 5828 5828 5828 5828 5828 5828 5829 5829 5829 5830 5831 5831 5832 5832 5833 5833 5834 5834 5834 5834 5835 5835 5835 5835 5835 5836 5836 5836 5836 5836 5836 5836 5836 5835 5835 5834 5834 5834 5834 5834 5834 5834 5834 5834 5834 5834 5835 5835 5835 5835 5835 5835 5834 5834 5834 5834 5834 5834 5834
5820 5820 5820 5820 5820 5821 5821 5822 5823 5824 5825 5825 5825 5825 5825 5825 5826 5826 5827 5827 5827 5827 5827 5827 5827 5827 5827 5827 5827 5827 5827 5827 5828 5828 5828 5829 5829 5830 5830 5831 5831 5832 5832 5832 5833 5833 5833 5834 5834 5834 5835 5835 5835 5836 5836 5836 5835 5835 5834 5834 5833 5833 5833 5833 5833 5832 5832 5832 5832 5832 5832 5833 5833 5833 5833 5834 5833 5833 5833 5833 5833 5832 5832 5832 5832
5818 5818 5818 5819 5819 5819 5819 5820 5821 5822 5823 5823 5823 5823 5823 5824 5824 5825 5826 5826 5826 5826 5826 5826 5826 5826 5826 5825 5825 5825 5826 5826 5826 5826 5827 5827 5828 5828 5828 5829 5830 5830 5830 5831 5831 5831 5832 5832 5833 5833 5834 5834 5835 5835 5835 5834 5834 5833 5833 5832 5832 5832 5831 5831 5831 5831 5830 5830 5830 5830 5830 5830 5831 5831 5831 5831 5831 5832 5831 5831 5831 5831 5831 5831 5830
5817 5817 5817 5817 5817 5817 5817 5818 5819 5819 5820 5821 5821 5822 5822 5822 5823 5824 5824 5824 5824 5824 5825 5826 5825 5824 5824 5824 5824 5825 5825 5825 5825 5825 5825 5826 5826 5827 5827 5828 5828 5829 5829 5829 5829 5830 5830 5831 5831 5832 5832 5833 5833 5833 5833 5833 5832 5832 5831 5830 5830 5830 5830 5830 5829 5829 5829 5829 5829 5828 5828 5828 5828 5828 5829 5829 5829 5829 5829 5829 5829 5829 5829 5829 5828
5816 5815 5815 5816 5816 5816 5816 5816 5817 5818 5818 5819 5819 5820 5821 5821 5822 5822 5823 5823 5823 5823 5824 5825 5824 5823 5822 5822 5823 5824 5824 5824 5824 5824 5824 5824 5825 5825 5826 5827 5827 5827 5827 5828 5828 5828 5829 5830 5830 5831 5831 5831 5832 5832 5831 5831 5830 5830 5829 5829 5829 5829 5828 5828 5827 5827 5827 5827 5827 5827 5826 5826 5826 5826 5826 5826 5826 5826 5827 5827 5827 5827 5826 5826 5826
5814 5814 5814 5814 5814 5814 5814 5815 5815 5816 5817 5818 5818 5819 5819 5820 5821 5821 5821 5822 5822 5823 5823 5823 5822 5822 5822 5822 5823 5823 5823 5823 5823 5824 5823 5823 5824 5825 5825 5826 5826 5826 5826 5826 5827 5827 5827 5828 5829 5829 5829 5830 5830 5830 5829 5829 5829 5828 5827 5827 5827 5827 5827 5827 5826 5826 5826 5825 5825 5825 5825 5824 5824 5824 5823 5823 5823 5823 5824 5824 5824 5824 5824 5824 5824
5812 5812 5813 5813 5813 5813 5813 5814 5814 5815 5816 5816 5817 5817 5818 5819 5819 5819 5820 5820 5821 5822 5822 5822 5821 5821 5821 5822 5822 5823 5822 5822 5823 5823 5822 5822 5823 5824 5824 5825 5825 5825 5825 5825 5825 5826 5826 5827 5827 5828 5828 5829 5829 5828 5828 5827 5827 5827 5826 5826 5826 5826 5826 5825 5825 5825 5824 5824 5824 5823 5823 5823 5822 5821 5821 5820 5820 5820 5820 5821 5821 5821 5821 5821 5821
5811 5811 5812 5811 5812 5812 5812 5813 5813 5814 5815 5815 5816 5816 5817 5818 5818 5818 5819 5819 5820 5820 5821 5820 5820 5820 5820 5821 5821 5822 5822 5822 5822 5821 5821 5822 5822 5823 5823 5823 5824 5823 5824 5825 5825 5825 5826 5826 5826 5827 5827 5827 5827 5827 5826 5826 5826 5826 5826 5825 5825 5825 5825 5825 5824 5824 5823 5823 5823 5822 5822 5821 5820 5819 5818 5818 5817 5817 5817 5818 5818 5818 5818 5818 5818
5810 5810 5810 5810 5811 5812 5812 5812 5813 5813 5814 5815 5815 5815 5816 5816 5817 5817 5818 5818 5819 5819 5819 5819 5819 5819 5819 5820 5820 5821 5821 5821 5821 5821 5821 5821 5821 5822 5822 5822 5822 5822 5823 5824 5824 5824 5825 5826 5826 5826 5826 5826 5826 5826 5825 5825 5826 5825 5825 5825 5824 5824 5824 5824 5823 5823 5822 5822 5822 5821 5821 5820 5819 5818 5817 5816 5815 5815 5815 5815 5815 5815 5815 5815 5815
5808 5809 5809 5810 5810 5811 5811 5811 5811 5812 5813 5813 5814 5814 5815 5815 5816 5816 5817 5818 5818 5818 5818 5818 5818 5818 5819 5819 5820 5820 5820 5820 5820 5820 5820 5820 5820 5821 5821 5821 5821 5821 5822 5823 5823 5824 5825 5825 5825 5825 5825 5825 5825 5825 5825 5825 5825 5825 5824 5824 5824 5824 5824 5823 5823 5822 5822 5821 5821 5820 5819 5818 5818 5817 5815 5814 5813 5813 5813 5813 5812 5812 5812 5812 5812
5808 5808 5807 5808 5809 5810 5810 5810 5810 5811 5812 5812 5812 5813 5813 5814 5815 5815 5816 5817 5817 5816 5817 5817 5817 5817 5818 5818 5819 5819 5819 5819 5819 5819 5819 5819 5820 5820 5820 5820 5821 5821 5821 5822 5823 5824 5824 5824 5824 5824 5824 5824 5824 5824 5824 5824 5824 5824 5824 5824 5823 5823 5823 5822 5822 5821 5821 5820 5820 5819 5818 5817 5816 5815 5814 5813 5812 5812 5811 5811 5810 5810 5810 5809 5809
5806 5807 5807 5807 5808 5808 5808 5809 5809 5810 5810 5811 5811 5811 5812 5813 5813 5814 5815 5817 5817 5815 5816 5817 5817 5817 5817 5818 5818 5817 5818 5817 5817 5818 5818 5818 5819 5819 5820 5820 5820 5820 5821 5821 5822 5822 5823 5823 5823 5823 5823 5824 5824 5824 5823 5823 5823 5823 5823 5823 5822 5822 5821 5821 5820 5820 5819 5819 5818 5818 5817 5816 5815 5814 5813 5812 5811 5811 5810 5809 5808 5808 5807 5807 5806
5805 5806 5806 5807 5807 5807 5807 5808 5808 5809 5809 5809 5810 5810 5811 5811 5812 5813 5815 5816 5816 5816 5815 5816 5817 5817 5817 5816 5816 5815 5816 5816 5816 5817 5817 5818 5818 5818 5819 5819 5819 5820 5820 5820 5821 5821 5821 5822 5822 5822 5823 5823 5823 5823 5823 5822 5822 5822 5822 5821 5821 5821 5820 5819 5819 5818 5818 5817 5817 5816 5815 5815 5814 5813 5812 5811 5810 5809 5809 5808 5807 5806 5806 5805 5804
5804 5805 5805 5806 5806 5806 5806 5807 5807 5807 5808 5808 5809 5809 5810 5811 5811 5813 5814 5814 5815 5815 5816 5816 5816 5816 5816 5815 5815 5815 5815 5815 5815 5816 5817 5817 5817 5818 5818 5818 5819 5819 5819 5819 5820 5820 5820 5821 5821 5822 5822 5822 5822 5822 5822 5821 5821 5820 5820 5820 5819 5819 5819 5818 5817 5817 5816 5816 5815 5815 5814 5814 5813 5812 5811 5810 5809 5808 5807 5807 5806 5805 5804 5803 5803
5803 5804 5804 5804 5804 5805 5805 5806 5806 5806 5807 5807 5808 5808 5809 5810 5811 5812 5813 5813 5814 5814 5814 5815 5815 5815 5815 5814 5815 5815 5814 5814 5815 5815 5816 5816 5817 5817 5817 5817 5818 5818 5818 5819 5819 5819 5820 5820 5820 5821 5821 5821 5821 5821 5821 5820 5820 5819 5818 5818 5818 5818 5817 5816 5816 5815 5815 5814 5814 5813 5813 5812 5812 5811 5810 5809 5808 5807 5806 5806 5805 5804 5803 5802 5802
5801 5802 5803 5803 5803 5803 5804 5804 5805 5805 5806 5806 5807 5808 5808 5809 5810 5811 5812 5812 5813 5813 5813 5814 5815 5814 5814 5814 5815 5814 5813 5814 5814 5815 5815 5815 5816 5816 5816 5817 5817 5817 5818 5818 5819 5819 5819 5819 5820 5820 5820 5820 5820 5819 5819 5819 5818 5818 5817 5817 5816 5816 5815 5815 5814 5814 5813 5813 5812 5812 5811 5811 5810 5809 5809 5808 5807 5806 5805 5805 5804 5803 5802 5801 5801
5800 5800 5801 5801 5802 5802 5803 5803 5804 5805 5805 5806 5806 5807 5808 5809 5809 5810 5811 5811 5812 5812 5812 5813 5813 5813 5813 5813 5813 5814 5813 5813 5814 5814 5814 5815 5815 5816 5816 5816 5816 5816 5817 5817 5818 5818 5818 5818 5819 5819 5818 5818 5818 5817 5817 5817 5816 5816 5816 5815 5815 5814 5814 5813 5813 5812 5812 5811 5811 5810 5810 5809 5808 5808 5807 5806 5806 5805 5804 5803 5803 5802 5801 5800 5800
5798 5799 5800 5800 5801 5801 5802 5802 5803 5804 5804 5805 5806 5806 5807 5808 5808 5809 5810 5810 5810 5811 5812 5812 5812 5812 5812 5812 5812 5812 5813 5813 5813 5813 5814 5814 5815 5815 5815 5815 5815 5816 5816 5817 5817 5817 5817 5817 5817 5817 5817 5816 5816 5815 5815 5815 5815 5815 5814 5814 5813 5813 5812 5812 5811 5811 5810 5810 5809 5809 5808 5808 5807 5806 5806 5805 5804 5804 5803 5802 5801 5800 5800 5799 5799
5797 5798 5798 5799 5800 5800 5801 5801 5802 5803 5803 5804 5805 5806 5806 5807 5807 5808 5809 5810 5809 5809 5810 5811 5810 5811 5811 5811 5811 5811 5812 5813 5812 5812 5812 5813 5814 5814 5814 5814 5814 5815 5815 5815 5815 5815 5815 5815 5815 5815 5815 5815 5814 5814 5814 5814 5813 5813 5813 5812 5812 5811 5811 5810 5810 5809 5809 5808 5807 5807 5807 5806 5806 5805 5804 5804 5803 5802 5802 5801 5800 5799 5798 5798 5797
5796 5797 5797 5798 5798 5799 5800 5800 5801 5802 5802 5803 5803 5804 5805 5805 5806 5806 5807 5809 5808 5807 5808 5809 5809 5810 5810 5810 5811 5811 5811 5812 5812 5811 5812 5812 5813 5813 5813 5813 5813 5813 5814 5814 5814 5813 5813 5813 5813 5813 5813 5813 5812 5812 5812 5812 5812 5811 5811 5811 5810 5810 5809 5809 5808 5808 5807 5806 5806 5805 5805 5805 5804 5804 5803 5802 5802 5801 5800 5799 5799 5798 5797 5796 5796
5795 5795 5796 5796 5797 5798 5798 5799 5800 5800 5801 5801 5802 5802 5803 5803 5804 5805 5805 5806 5806 5806 5807 5808 5809 5809 5809 5809 5810 5810 5810 5810 5811 5811 5811 5811 5812 5812 5812 5812 5811 5812 5812 5812 5812 5812 5812 5812 5811 5811 5811 5811 5811 5811 5811 5811 5810 5810 5809 5809 5809 5808 5808 5807 5807 5806 5805 5804 5804 5804 5804 5803 5803 5803 5802 5801 5800 5799 5799 5798 5797 5797 5796 5795 5794
5794 5794 5795 5795 5796 5796 5797 5797 5798 5799 5799 5800 5800 5800 5801 5801 5802 5803 5804 5804 5804 5805 5807 5808 5809 5808 5808 5808 5808 5808 5808 5808 5809 5810 5810 5810 5810 5810 5810 5810 5810 5810 5810 5810 5810 5810 5810 5810 5810 5809 5809 5809 5809 5809 5809 5809 5809 5808 5808 5807 5807 5806 5806 5805 5804 5803 5803 5802 5802 5802 5802 5802 5802 5801 5801 5800 5799 5798 5797 5797 5796 5795 5795 5794 5793
5792 5793 5793 5794 5794 5795 5795 5796 5796 5797 5798 5798 5799 5799 5800 5800 5800 5801 5802 5803 5803 5804 5805 5806 5807 5807 5806 5806 5806 5806 5806 5806 5807 5808 5809 5809 5809 5808 5808 5808 5808 5808 5808 5808 5808 5808 5808 5808 5808 5808 5808 5808 5808 5808 5807 5807 5807 5807 5806 5806 5805 5805 5804 5803 5802 5801 5801 5801 5801 5801 5801 5801 5801 5800 5799 5799 5798 5797 5796 5796 5795 5794 5794 5793 5793
5791 5792 5792 5792 5793 5793 5794 5794 5795 5796 5796 5797 5798 5798 5798 5798 5799 5800 5801 5802 5802 5803 5803 5804 5804 5805 5805 5804 5804 5805 5805 5805 5806 5807 5807 5808 5807 5807 5807 5807 5807 5807 5807 5807 5807 5807 5807 5806 5806 5806 5806 5806 5806 5806 5806 5805 5805 5805 5804 5804 5803 5803 5802 5801 5800 5800 5800 5800 5800 5800 5800 5800 5799 5799 5798 5798 5797 5796 5795 5795 5794 5793 5793 5792 5792
5790 5790 5791 5791 5791 5792 5792 5793 5793 5794 5795 5796 5796 5797 5797 5797 5798 5799 5800 5801 5801 5801 5802 5802 5802 5802 5803 5803 5803 5803 5804 5804 5805 5806 5806 5806 5806 5806 5806 5806 5805 5806 5806 5805 5805 5805 5805 5805 5805 5805 5805 5805 5805 5804 5804 5804 5803 5803 5803 5802 5802 5801 5801 5800 5799 5799 5799 5799 5799 5799 5799 5799 5798 5797 5797 5796 5796 5795 5795 5794 5793 5793 5792 5791 5791
5788 5788 5789 5789 5790 5790 5791 5791 5792 5793 5793 5794 5795 5795 5796 5796 5797 5798 5799 5799 5799 5800 5800 5800 5800 5800 5801 5802 5802 5802 5802 5803 5804 5805 5805 5805 5805 5804 5804 5804 5804 5804 5804 5804 5804 5804 5804 5803 5803 5803 5803 5803 5803 5803 5802 5802 5802 5802 5801 5801 5800 5800 5799 5799 5798 5798 5798 5798 5798 5798 5797 5797 5796 5796 5795 5795 5794 5794 5793 5793 5792 5792 5791 5790 5790
5786 5787 5787 5788 5788 5789 5789 5790 5790 5791 5792 5793 5793 5794 5795 5795 5796 5797 5797 5798 5798 5798 5798 5799 5799 5799 5799 5799 5800 5801 5801 5801 5802 5803 5804 5804 5803 5803 5803 5803 5803 5803 5803 5803 5803 5802 5802 5802 5802 5802 5801 5801 5801 5801 5801 5801 5800 5800 5800 5799 5799 5798 5798 5797 5796 5796 5796 5796 5796 5796 5795 5795 5794 5794 5793 5793 5793 5792 5792 5791 5791 5790 5790 5789 5788
5784 5784 5785 5786 5787 5788 5788 5789 5789 5790 5791 5791 5792 5793 5794 5794 5795 5796 5796 5797 5797 5797 5797 5797 5798 5799 5798 5797 5798 5799 5800 5800 5801 5802 5802 5802 5802 5801 5801 5802 5802 5802 5802 5801 5801 5801 5801 5801 5800 5800 5800 5800 5800 5800 5799 5799 5799 5799 5798 5798 5797 5797 5796 5795 5795 5794 5794 5794 5794 5794 5793 5793 5793 5792 5792 5791 5791 5791 5790 5790 5789 5789 5788 5787 5786
5782 5783 5783 5784 5785 5786 5787 5788 5788 5789 5789 5790 5791 5791 5792 5793 5794 5795 5796 5796 5796 5796 5796 5797 5797 5798 5799 5798 5797 5797 5798 5799 5800 5801 5800 5800 5800 5800 5800 5800 5800 5800 5800 5800 5800 5800 5800 5799 5799 5799 5799 5799 5798 5798 5798 5798 5798 5797 5797 5796 5796 5795 5794 5794 5793 5792 5792 5792 5792 5792 5792 5791 5791 5790 5790 5790 5789 5789 5789 5788 5788 5787 5786 5785 5785
5780 5781 5782 5783 5784 5785 5785 5786 5787 5787 5788 5788 5789 5790 5791 5792 5793 5793 5794 5795 5795 5796 5796 5796 5796 5797 5798 5799 5799 5798 5798 5799 5800 5800 5799 5798 5798 5798 5798 5799 5799 5799 5799 5799 5799 5799 5798 5798 5798 5798 5797 5797 5797 5797 5797 5796 5796 5796 5795 5795 5794 5793 5793 5792 5791 5791 5790 5790 5790 5790 5789 5789 5789 5788 5788 5788 5787 5787 5787 5786 5786 5785 5785 5784 5783
5779 5780 5781 5782 5782 5783 5784 5785 5785 5786 5787 5787 5788 5788 5789 5790 5791 5792 5792 5793 5794 5794 5794 5795 5795 5796 5797 5797 5797 5798 5798 5798 5799 5799 5798 5797 5797 5797 5797 5797 5797 5797 5797 5797 5797 5797 5797 5796 5796 5796 5796 5795 5795 5795 5795 5795 5794 5794 5793 5793 5792 5791 5791 5790 5790 5789 5788 5788 5788 5788 5787 5787 5787 5786 5786 5785 5785 5785 5784 5784 5784 5783 5783 5782 5781
5777 5778 5779 5780 5781 5781 5782 5783 5784 5785 5785 5786 5786 5787 5788 5788 5789 5790 5791 5791 5792 5792 5793 5793 5794 5794 5795 5795 5795 5796 5796 5797 5797 5797 5797 5796 5796 5796 5795 5795 5795 5795 5795 5795 5795 5795 5795 5794 5794 5794 5794 5794 5794 5793 5793 5793 5792 5792 5791 5791 5790 5789 5789 5788 5788 5787 5786 5786 5786 5785 5785 5785 5785 5784 5784 5783 5783 5782 5782 5782 5782 5781 5781 5780 5780
5775 5776 5778 5779 5779 5780 5781 5781 5782 5783 5784 5785 5785 5786 5786 5787 5787 5788 5789 5789 5790 5791 5791 5791 5792 5792 5793 5793 5794 5794 5795 5795 5795 5795 5795 5794 5794 5794 5794 5793 5793 5793 5793 5793 5793 5793 5793 5793 5792 5792 5792 5792 5792 5791 5791 5791 5790 5790 5789 5788 5788 5787 5787 5786 5785 5785 5784 5784 5784 5783 5783 5783 5782 5782 5781 5781 5781 5780 5780 5780 5779 5779 5778 5778 5777
5774 5775 5776 5777 5778 5778 5779 5780 5780 5781 5782 5783 5783 5784 5785 5785 5786 5787 5787 5788 5789 5789 5790 5790 5790 5791 5791 5791 5792 5792 5793 5793 5793 5793 5793 5792 5792 5792 5792 5792 5792 5792 5791 5791 5791 5791 5791 5791 5791 5791 5790 5790 5790 5789 5789 5788 5788 5787 5787 5786 5786 5785 5785 5784 5783 5783 5783 5782 5782 5782 5781 5781 5780 5780 5779 5779 5778 5778 5778 5777 5777 5776 5776 5775 5774
5773 5774 5774 5775 5776 5776 5777 5778 5778 5779 5780 5780 5781 5782 5783 5784 5784 5785 5786 5787 5787 5787 5788 5788 5789 5789 5789 5789 5790 5790 5791 5791 5791 5790 5790 5790 5790 5790 5790 5790 5790 5790 5790 5789 5790 5789 5789 5789 5789 5789 5788 5788 5787 5787 5786 5786 5785 5785 5785 5784 5784 5783 5783 5783 5782 5781 5781 5780 5780 5780 5779 5779 5778 5777 5777 5776 5776 5775 5775 5775 5774 5773 5773 5772 5771
5771 5772 5773 5773 5774 5774 5775 5775 5776 5777 5777 5778 5779 5780 5780 5781 5782 5783 5784 5785 5785 5786 5786 5786 5787 5787 5787 5787 5787 5788 5788 5788 5788 5788 5788 5788 5788 5789 5789 5788 5788 5788 5788 5788 5788 5788 5787 5787 5787 5786 5786 5785 5785 5784 5784 5784 5783 5783 5783 5782 5782 5782 5781 5781 5780 5780 5779 5778 5778 5778 5777 5776 5775 5775 5774 5773 5773 5772 5772 5771 5771 5770 5769 5768 5767
5770 5770 5771 5772 5772 5772 5772 5773 5773 5774 5775 5776 5776 5777 5778 5779 5780 5781 5781 5782 5783 5783 5784 5784 5784 5785 5785 5785 5785 5786 5786 5786 5785 5786 5786 5786 5786 5786 5786 5787 5787 5787 5786 5786 5786 5786 5785 5785 5785 5784 5784 5783 5782 5782 5782 5781 5781 5781 5781 5780 5780 5779 5779 5778 5778 5777 5777 5776 5776 5775 5775 5774 5773 5772 5771 5771 5770 5769 5769 5768 5767 5766 5765 5764 5763
5767 5768 5769 5770 5770 5770 5770 5771 5771 5772 5772 5773 5774 5775 5776 5776 5777 5778 5779 5780 5781 5781 5782 5782 5782 5783 5783 5783 5783 5784 5784 5784 5783 5783 5784 5784 5784 5784 5784 5784 5785 5785 5784 5784 5784 5784 5784 5783 5783 5782 5782 5781 5780 5780 5779 5779 5779 5778 5778 5778 5777 5776 5776 5776 5775 5775 5774 5773 5773 5772 5772 5771 5770 5769 5769 5768 5767 5766 5765 5765 5764 5762 5761 5760 5759
5765 5766 5767 5767 5768 5768 5768 5769 5769 5770 5771 5771 5772 5773 5773 5774 5775 5776 5777 5778 5778 5779 5779 5780 5780 5780 5780 5781 5781 5781 5781 5782 5781 5781 5782 5782 5782 5782 5782 5782 5783 5782 5782 5782 5782 5782 5782 5782 5781 5780 5780 5779 5778 5778 5777 5777 5777 5776 5775 5775 5774 5773 5773 5772 5772 5771 5771 5771 5770 5770 5769 5768 5767 5766 5765 5765 5764 5763 5762 5761 5760 5758 5757 5756 5755
5762 5764 5764 5765 5766 5766 5766 5767 5767 5768 5769 5769 5770 5771 5771 5772 5773 5774 5774 5775 5776 5776 5777 5777 5777 5778 5778 5778 5779 5779 5779 5779 5779 5779 5780 5779 5779 5780 5780 5780 5780 5780 5780 5780 5779 5779 5779 5779 5778 5778 5777 5776 5776 5775 5775 5774 5774 5773 5773 5772 5771 5770 5770 5769 5769 5768 5768 5767 5767 5767 5766 5765 5764 5763 5762 5761 5760 5759 5758 5757 5756 5755 5753 5752 5751
5759 5761 5762 5763 5763 5764 5764 5764 5765 5765 5766 5767 5767 5768 5769 5770 5770 5771 5772 5772 5773 5773 5774 5774 5775 5775 5776 5776 5776 5776 5777 5777 5777 5777 5777 5777 5777 5777 5777 5777 5777 5777 5777 5777 5776 5776 5776 5776 5775 5775 5774 5773 5772 5772 5772 5771 5771 5770 5770 5769 5768 5767 5767 5766 5765 5765 5764 5764 5763 5763 5762 5761 5760 5759 5759 5758 5756 5755 5755 5754 5752 5751 5750 5748 5747
5756 5757 5759 5760 5761 5762 5762 5762 5763 5763 5763 5764 5765 5765 5766 5767 5767 5768 5769 5769 5770 5770 5770 5771 5772 5772 5773 5773 5774 5774 5774 5774 5774 5774 5774 5774 5774 5774 5774 5774 5774 5774 5774 5773 5773 5773 5772 5772 5772 5772 5771 5770 5769 5769 5768 5768 5768 5767 5766 5766 5765 5764 5763 5762 5762 5761 5760 5759 5759 5758 5758 5757 5755 5755 5755 5754 5752 5751 5750 5750 5748 5747 5746 5744 5743
5753 5754 5755 5757 5758 5759 5759 5760 5760 5760 5761 5761 5762 5762 5763 5764 5765 5765 5766 5766 5767 5767 5767 5768 5768 5769 5770 5770 5770 5770 5771 5771 5771 5771 5771 5771 5771 5771 5771 5771 5771 5771 5771 5770 5770 5769 5769 5769 5768 5768 5768 5767 5766 5765 5765 5764 5764 5764 5763 5763 5762 5761 5760 5759 5758 5758 5756 5755 5754 5753 5754 5753 5751 5750 5750 5749 5748 5747 5745 5745 5744 5743 5742 5740 5739
5750 5751 5752 5753 5754 5755 5756 5756 5757 5757 5758 5758 5759 5760 5760 5761 5761 5762 5763 5763 5764 5764 5764 5765 5765 5765 5766 5766 5767 5767 5767 5767 5768 5768 5768 5768 5768 5768 5768 5768 5768 5768 5768 5767 5767 5766 5766 5765 5765 5764 5764 5763 5762 5762 5761 5761 5760 5760 5759 5759 5758 5758 5757 5756 5755 5753 5752 5752 5750 5748 5749 5749 5747 5745 5744 5744 5743 5742 5741 5739 5738 5738 5736 5735 5734
5747 5748 5749 5750 5751 5752 5753 5753 5754 5754 5755 5755 5756 5756 5757 5757 5758 5759 5759 5760 5760 5761 5761 5761 5762 5762 5762 5763 5763 5764 5764 5764 5764 5764 5764 5764 5765 5765 5765 5765 5764 5764 5764 5764 5763 5763 5762 5761 5761 5760 5760 5759 5758 5758 5757 5757 5756 5756 5755 5754 5754 5754 5753 5752 5750 5749 5748 5747 5746 5744 5743 5743 5742 5739 5737 5738 5738 5737 5736 5734 5732 5732 5731 5730 5729
5744 5745 5746 5747 5747 5748 5749 5750 5750 5751 5752 5752 5752 5753 5753 5754 5754 5755 5755 5756 5757 5757 5757 5758 5758 5758 5759 5759 5760 5760 5760 5760 5760 5761 5760 5761 5761 5761 5761 5761 5761 5760 5760 5760 5759 5759 5758 5758 5757 5756 5756 5755 5754 5754 5753 5752 5752 5751 5750 5749 5749 5748 5747 5747 5745 5744 5743 5742 5740 5738 5736 5736 5737 5735 5731 5732 5733 5731 5729 5729 5726 5725 5725 5723 5722
5741 5742 5743 5744 5744 5745 5746 5746 5747 5748 5748 5749 5749 5749 5750 5750 5751 5751 5752 5752 5753 5753 5753 5754 5754 5754 5755 5755 5756 5756 5756 5756 5756 5756 5756 5756 5756 5756 5756 5756 5756 5756 5755 5755 5755 5754 5753 5753 5752 5752 5751 5750 5750 5749 5748 5747 5747 5746 5745 5743 5742 5742 5741 5740 5739 5738 5737 5736 5734 5732 5729 5728 5730 5729 5725 5724 5726 5724 5722 5723 5720 5718 5717 5717 5715
5738 5739 5740 5741 5741 5742 5742 5743 5744 5744 5745 5745 5746 5746 5746 5747 5747 5747 5748 5748 5749 5749 5749 5749 5750 5750 5750 5751 5751 5751 5751 5752 5752 5752 5752 5752 5751 5751 5751 5751 5751 5750 5750 5749 5749 5748 5747 5747 5746 5746 5745 5745 5744 5743 5742 5742 5741 5740 5739 5738 5736 5735 5734 5733 5732 5731 5730 5730 5727 5724 5722 5720 5721 5722 5718 5716 5718 5716 5714 5716 5716 5711 5709 5709 5708
5735 5736 5737 5737 5738 5739 5739 5740 5740 5740 5741 5741 5741 5742 5742 5743 5743 5744 5744 5744 5744 5745 5745 5745 5745 5746 5746 5746 5746 5746 5746 5747 5747 5746 5746 5746 5746 5746 5746 5746 5745 5745 5744 5744 5743 5742 5741 5741 5740 5739 5738 5738 5737 5736 5736 5735 5734 5733 5732 5730 5729 5728 5726 5725 5725 5723 5723 5724 5722 5718 5715 5714 5714 5715 5711 5708 5710 5709 5705 5706 5709 5705 5701 5701 5700
5732 5732 5733 5734 5734 5735 5736 5736 5736 5737 5737 5737 5737 5738 5738 5739 5739 5739 5740 5740 5740 5740 5740 5740 5740 5741 5741 5740 5740 5740 5740 5741 5741 5740 5740 5740 5740 5740 5740 5740 5740 5739 5738 5737 5737 5736 5735 5734 5733 5733 5732 5731 5730 5729 5728 5727 5726 5725 5724 5723 5721 5720 5718 5718 5717 5715 5714 5716 5716 5712 5708 5707 5707 5707 5704 5701 5701 5702 5699 5697 5698 5698 5695 5693 5692
5728 5729 5729 5730 5730 5731 5732 5732 5732 5733 5733 5733 5733 5734 5734 5734 5735 5735 5735 5735 5735 5735 5735 5736 5735 5735 5735 5735 5735 5734 5734 5734 5734 5734 5734 5734 5733 5733 5734 5734 5733 5732 5731 5730 5729 5729 5728 5726 5725 5724 5724 5723 5721 5720 5720 5719 5718 5716 5715 5714 5712 5711 5710 5709 5708 5707 5705 5706 5708 5707 5702 5700 5700 5699 5697 5694 5691 5693 5694 5691 5688 5688 5688 5685 5684